Regional Weather Roundup
Issued by NWS

Home | Current Version | Previous Version | Text Only | Print | Product List | Glossary Off
Versions: 1 2 3 4 5 6 7 8 9 10 11 12 13 14 15 16 17 18 19 20 21 22 23 24 25 26 27 28 29 30 31 32 33 34 35 36 37 38 39 40 41 42 43 44 45 46 47 48 49 50

000
ASUS45 KPSR 202100
RWRAZ

PRELIMINARY ARIZONA REGIONAL HOURLY WEATHER ROUNDUP
NATIONAL WEATHER SERVICE PHOENIX AZ
200 PM MST WED AUG 20 2014

NOTE: FAIR INDICATES FEW OR NO CLOUDS BELOW 12,000 FEET WITH NO
SIGNIFICANT WEATHER AND/OR OBSTRUCTIONS TO VISIBILITY.

AZZ001>003-036-202200-
NORTHWEST ARIZONA

CITY           SKY/WX    TMP DP  RH WIND       PRES   REMARKS
KINGMAN        MOSUNNY   86  50  28 SE6       30.02F
$$

AZZ004>008-015-016-018-202200-
NORTH CENTRAL ARIZONA

CITY           SKY/WX    TMP DP  RH WIND       PRES   REMARKS
GRAND CANYON   LGT RAIN  66  48  52 SW17      30.24S
WILLIAMS       MOSUNNY   72  48  43 W10G20    30.29F
PRESCOTT       CLOUDY    75  53  46 SE9       30.13F
FLAGSTAFF      CLOUDY    68  44  42 N9        30.25F
PAYSON         MOSUNNY   79  54  41 SW13      30.15F
PAGE           SUNNY     85  47  26 VRB3      30.01F
$$

AZZ009>014-017-202200-
NORTHEAST ARIZONA

CITY           SKY/WX    TMP DP  RH WIND       PRES   REMARKS
WINSLOW        NOT AVBL
SAINT JOHNS    MOSUNNY   80  43  26 CALM      30.13F
WINDOW ROCK    PTSUNNY   76  42  29 W14       30.20F
$$

AZZ023-202200-
GREATER PHOENIX AREA

CITY           SKY/WX    TMP DP  RH WIND       PRES   REMARKS
PHOENIX        MOSUNNY   94  57  28 CALM      29.86F
GLENDALE       MOSUNNY   93  59  31 SW5       29.89F
DEER VALLEY    SUNNY     92  57  30 W8        29.89F
SCOTTSDALE     SUNNY     91  59  33 VRB3      29.91F
MESA-FALCON    MOSUNNY   95  57  28 W6        29.89F
CHANDLER       MOSUNNY   93  57  29 W7        29.89F
$$

AZZ027-028-202200-
SOUTHWEST MARICOPA COUNTY AND PINAL COUNTY

CITY           SKY/WX    TMP DP  RH WIND       PRES   REMARKS
CASA GRANDE    SUNNY     95  55  26 CALM      29.90F
GILA BEND      PTCLDY    99  55  23 VRB7      29.85F
$$

AZZ503-504-507>509-202200-
SOUTHEAST ARIZONA

CITY           SKY/WX    TMP DP  RH WIND       PRES   REMARKS
TUCSON         MOSUNNY   90  55  30 N5        29.98F
DAVIS-MONTHAN  SUNNY     88  55  32 VRB1      29.96F
RYAN FIELD       N/A     91  52  25 NE5       29.96F
NOGALES        LGT RAIN  81  58  45 W6        30.06F
SAFFORD        MOSUNNY   87  57  35 NW12      29.98F
$$

AZZ020-021-025-026-031-202200-
SOUTHWEST ARIZONA

CITY           SKY/WX    TMP DP  RH WIND       PRES   REMARKS
YUMA           NOT AVBL
$$

CAZ031-033-041-043-047-048-061-202200-
SOUTHERN CALIFORNIA

CITY           SKY/WX    TMP DP  RH WIND       PRES   REMARKS
DOWNTOWN L.A.  SUNNY     79  59  50 VRB7      29.91R
L.A. AIRPORT   MOSUNNY   77  59  53 W14       29.93S
SAN DIEGO      PTSUNNY   76  60  57 VRB7      29.94F
BURBANK        SUNNY     82  55  39 S13       29.90F
ONTARIO        PTSUNNY   85  51  31 CALM      29.92F
RIVERSIDE      PTSUNNY   82  53  36 CALM      29.92F
PALM SPRINGS   CLOUDY    93  51  23 N14       29.84F
EL CENTRO NAS  PTSUNNY   98  43  15 E6        29.79F
IMPERIAL       MOSUNNY   99  43  14 CALM      29.79F
BLYTHE         MOSUNNY   98  52  21 S10       29.81F
$$

NVZ020-UTZ003-202200-
SOUTHERN NEVADA-UTAH

CITY           SKY/WX    TMP DP  RH WIND       PRES   REMARKS
LAS VEGAS      NOT AVBL
SALT LAKE CITY MOSUNNY   81  48  31 S16       29.96F
$$

NMZ009-TXZ055-202200-
NEW MEXICO-WEST TEXAS

CITY           SKY/WX    TMP DP  RH WIND       PRES   REMARKS
ALBUQUERQUE    MOSUNNY   87  43  21 NW14      30.06F
EL PASO        MOSUNNY   89  51  27 VRB7G17   29.97F
$$


........................KEY........................
SKY/WX - SKY CONDITION/WEATHER
TMP    - TEMPERATURE IN FAHRENHEIT
DP     - DEW POINT IN FAHRENHEIT
RH     - RELATIVE HUMIDITY IN PERCENT
WIND   - DIRECTION AND SPEED IN MILES PER HOUR (MPH)
VRB    - VARIABLE WIND DIRECTION
PRES   - MEAN SEA LEVEL PRESSURE IN INCHES OF MERCURY
         F - FALLING PRESSURE   R - RISING PRESSURE
         S - STEADY PRESSURE
VSB    - VISIBILITY IN MILES
HX     - HEAT INDEX IN FAHRENHEIT
WCI    - WIND CHILL INDEX IN FAHRENHEIT
TC     - TEMPERATURE IN CELSIUS WHICH IS ALSO KNOWN AS
         TEMPERATURE IN CENTIGRADE
AFB    - AIR FORCE BASE
         LUKE AFB IS LUKE AIR FORCE BASE
         DAVIS-MONTHAN IS DAVIS-MONTHAN AIR FORCE BASE
NAS    - NAVAL AIR STATION
         EL CENTRO NAS IS EL CENTRO NAVAL AIR STATION
N/A    - NOT AVAILABLE



USA.gov is the U.S. government's official web portal to all federal, state and local government web resources and services.